Погода в Знауре

Южная Осетия     42°11′43″N   43°46′23″E
темп.,
°C
ветер,
м/с
пор.,
м/с
влажн.,
%
обл.,
%
осадки,
мм/ч
давл.,
гПа
погр.,
м
23 апреля, пт
пт2300:00+4з4898100 1.3 1026598
03:00+4з2598100 1.7 1026433
06:00+4з259798 0.0 1026300
09:00+7з348343 0.0 1025506
12:00+13з57450 0.0 10221303
15:00+15з58320 0.0 10211496
18:00+11з2360100 0.0 102171
21:00+6ссв22623 0.0 102316
24 апреля, сб
сб2400:00+6св22601 0.0 102323
03:00+6св22454 0.0 102232
06:00+6всв286117 0.0 1023250
09:00+12вюв46675 0.0 1020781
12:00+16юв33575 0.0 1018992
15:00+18зюз56475 0.0 10171581
18:00+11зсз47805 0.0 1019402
21:00+7зсз349343 0.0 1021136
25 апреля, вс
вс2500:00+7сз2289100 0.0 1021120
03:00+6св117884 0.0 102012
06:00+7всв217713 0.0 102034
09:00+15вюв375628 0.0 1017689
12:00+19вюв674862 0.0 10151150
15:00+19вюв684965 0.0 1013963
18:00+16в511645 0.0 1013540
21:00+12ссв237898 0.0 101595
26 апреля, пн
пн2600:00+7сз3394100 0.0 1018168
03:00+9всв1190100 0.1 101673
06:00+10юв0087100 0.1 101538
09:00+14вюв2371100 0.2 1012475
12:00+19юв3355100 0.1 1010876
15:00+19ююв2260100 0.4 1008639
18:00+12зюз4697100 7.6 1010330
21:00+8сз4897100 18.9 1014394
27 апреля, вт
вт2700:00+8з3598100 5.0 1016324
03:00+7зсз2499100 5.1 1016342
06:00+7з2498100 0.1 1016337
09:00+7з2498100 0.2 1017405
12:00+8зюз2397100 0.1 1017407
15:00+8зюз2397100 0.3 1017392
18:00+7зюз2298100 0.1 1017258
21:00+7зсз1198100 0.2 1018103